Location: Aalsum
(53.3404°N, 6.0062°E)
Time: 08:50:34
(UTC+00:00)

Cosmos 2082 - Pass Details

Date: 28 January 2023
Orbit: 835 x 853 km, 71.0° (Epoch: 19 March)

Event Time Altitude Azimuth Distance (km) Brightness Sun altitude
Rises 17:13:09 0° 327° (NNW) 3,401 7.0 -9.3°
Reaches altitude 10° 17:15:36 10° 327° (NNW) 2,461 6.3 -9.6°
Maximum altitude 17:21:15 84° 242° (WSW) 848 3.8 -10.4°
Drops below altitude 10° 17:26:51 10° 154° (SSE) 2,442 6.0 -11.2°
Sets 17:29:17 0° 153° (SSE) 3,373 6.7 -11.6°
